Tracking 19570 objects as of 22-Feb-2019
HD Live streaming from Space Station
objects crossing your sky now

NAVSTAR 18 (USA 50)

Track NAVSTAR 18 (USA 50) now!
NAVSTAR 18 (USA 50) is classified as:


NORAD ID: 20452
Int'l Code: 1990-008A
Perigee: 21,167.8 km
Apogee: 21,239.9 km
Inclination: 54.8 °
Period: 759.5 minutes
Semi major axis: 27574 km
RCS: 1.5533 m2 (large)
Launch date: January 24, 1990
Source: United States (US)
Launch site: AIR FORCE EASTERN TEST RANGE (AFETR)
aabbcc
Your satellite tracking list
Your tracking list is empty




NASA's NSSDC Master Catalog

Two Line Element Set (TLE):
1 20452U 90008A   19053.39908608  .00000037  00000-0  00000+0 0  9990
2 20452  54.8243 227.0741 0013081 248.8192 114.6681  1.89597504205597
Source of the keplerian elements: AFSPC